owner,sensor,date,latitude,longitude,vertical_datum,wind_speed,wind_to_direction,wind_speed_of_gust,qcFlag 
LUMCON,ioos:station:LUMCON:102:1,2017-05-01T00:00:00Z,29.1870,-90.6093,0.0,6.6,329.0,-9999.0,'1111122,1111122,1111122' 
LUMCON,ioos:station:LUMCON:102:1,2017-05-01T00:15:00Z,29.1870,-90.6093,0.0,5.7,330.0,-9999.0,'1111122,1111122,1111122' 
LUMCON,ioos:station:LUMCON:102:1,2017-05-01T00:30:00Z,29.1870,-90.6093,0.0,6.0,306.0,-9999.0,'1111122,1111122,1111122' 
LUMCON,ioos:station:LUMCON:102:1,2017-05-01T00:45:00Z,29.1870,-90.6093,0.0,7.0,316.0,-9999.0,'1111122,1111122,1111122' 
LUMCON,ioos:station:LUMCON:102:1,2017-05-01T01:00:00Z,29.1870,-90.6093,0.0,7.2,300.0,-9999.0,'1111122,1111122,1111122' 
LUMCON,ioos:station:LUMCON:102:1,2017-05-01T01:15:00Z,29.1870,-90.6093,0.0,8.5,314.0,-9999.0,'1111122,1111122,1111122' 
LUMCON,ioos:station:LUMCON:102:1,2017-05-01T01:30:00Z,29.1870,-90.6093,0.0,8.1,310.0,-9999.0,'1111122,1111122,1111122' 
LUMCON,ioos:station:LUMCON:102:1,2017-05-01T01:45:00Z,29.1870,-90.6093,0.0,7.5,311.0,-9999.0,'1111122,1111122,1111122' 
LUMCON,ioos:station:LUMCON:102:1,2017-05-01T02:00:00Z,29.1870,-90.6093,0.0,9.1,311.0,-9999.0,'1111122,1111122,1111122' 
LUMCON,ioos:station:LUMCON:102:1,2017-05-01T02:15:00Z,29.1870,-90.6093,0.0,6.8,311.0,-9999.0,'1111122,1111122,1111122' 
LUMCON,ioos:station:LUMCON:102:1,2017-05-01T02:30:00Z,29.1870,-90.6093,0.0,9.7,322.0,-9999.0,'1111122,1111122,1111122' 
LUMCON,ioos:station:LUMCON:102:1,2017-05-01T02:45:00Z,29.1870,-90.6093,0.0,10.5,319.0,-9999.0,'1111122,1111122,1111122' 
LUMCON,ioos:station:LUMCON:102:1,2017-05-01T03:00:00Z,29.1870,-90.6093,0.0,8.4,321.0,-9999.0,'1111122,1111122,1111122' 
LUMCON,ioos:station:LUMCON:102:1,2017-05-01T03:15:00Z,29.1870,-90.6093,0.0,9.6,327.0,-9999.0,'1111122,1111122,1111122' 
LUMCON,ioos:station:LUMCON:102:1,2017-05-01T03:30:00Z,29.1870,-90.6093,0.0,10.3,330.0,-9999.0,'1111122,1111122,1111122' 
LUMCON,ioos:station:LUMCON:102:1,2017-05-01T03:45:00Z,29.1870,-90.6093,0.0,9.5,326.0,-9999.0,'1111122,1111122,1111122' 
LUMCON,ioos:station:LUMCON:102:1,2017-05-01T04:00:00Z,29.1870,-90.6093,0.0,9.2,329.0,-9999.0,'1111122,1111122,1111122' 
LUMCON,ioos:station:LUMCON:102:1,2017-05-01T04:15:00Z,29.1870,-90.6093,0.0,8.4,320.0,-9999.0,'1111122,1111122,1111122' 
LUMCON,ioos:station:LUMCON:102:1,2017-05-01T04:30:00Z,29.1870,-90.6093,0.0,8.9,332.0,-9999.0,'1111122,1111122,1111122' 
LUMCON,ioos:station:LUMCON:102:1,2017-05-01T04:45:00Z,29.1870,-90.6093,0.0,10.2,331.0,-9999.0,'1111122,1111122,1111122' 
LUMCON,ioos:station:LUMCON:102:1,2017-05-01T05:00:00Z,29.1870,-90.6093,0.0,9.1,347.0,-9999.0,'1111122,1111122,1111122' 
LUMCON,ioos:station:LUMCON:102:1,2017-05-01T05:15:00Z,29.1870,-90.6093,0.0,9.3,341.0,-9999.0,'1111122,1111122,1111122' 
LUMCON,ioos:station:LUMCON:102:1,2017-05-01T05:30:00Z,29.1870,-90.6093,0.0,12.2,337.0,-9999.0,'1111122,1111122,1111122' 
LUMCON,ioos:station:LUMCON:102:1,2017-05-01T05:45:00Z,29.1870,-90.6093,0.0,11.6,340.0,-9999.0,'1111122,1111122,1111122' 
LUMCON,ioos:station:LUMCON:102:1,2017-05-01T06:00:00Z,29.1870,-90.6093,0.0,8.6,348.0,-9999.0,'1111122,1111122,1111122' 
LUMCON,ioos:station:LUMCON:102:1,2017-05-01T06:15:00Z,29.1870,-90.6093,0.0,9.4,348.0,-9999.0,'1111122,1111122,1111122' 
LUMCON,ioos:station:LUMCON:102:1,2017-05-01T06:30:00Z,29.1870,-90.6093,0.0,10.1,353.0,-9999.0,'1111122,1111122,1111122' 
LUMCON,ioos:station:LUMCON:102:1,2017-05-01T06:45:00Z,29.1870,-90.6093,0.0,10.1,341.0,-9999.0,'1111122,1111122,1111122' 
LUMCON,ioos:station:LUMCON:102:1,2017-05-01T07:00:00Z,29.1870,-90.6093,0.0,10.3,338.0,-9999.0,'1111122,1111122,1111122' 
LUMCON,ioos:station:LUMCON:102:1,2017-05-01T07:15:00Z,29.1870,-90.6093,0.0,10.4,341.0,-9999.0,'1111122,1111122,1111122' 
LUMCON,ioos:station:LUMCON:102:1,2017-05-01T07:30:00Z,29.1870,-90.6093,0.0,8.5,340.0,-9999.0,'1111122,1111122,1111122' 
LUMCON,ioos:station:LUMCON:102:1,2017-05-01T07:45:00Z,29.1870,-90.6093,0.0,7.7,341.0,-9999.0,'1111122,1111122,1111122' 
LUMCON,ioos:station:LUMCON:102:1,2017-05-01T08:00:00Z,29.1870,-90.6093,0.0,8.0,346.0,-9999.0,'1111122,1111122,1111122' 
LUMCON,ioos:station:LUMCON:102:1,2017-05-01T08:15:00Z,29.1870,-90.6093,0.0,8.5,347.0,-9999.0,'1111122,1111122,1111122' 
LUMCON,ioos:station:LUMCON:102:1,2017-05-01T08:30:00Z,29.1870,-90.6093,0.0,9.8,339.0,-9999.0,'1111122,1111122,1111122' 
LUMCON,ioos:station:LUMCON:102:1,2017-05-01T08:45:00Z,29.1870,-90.6093,0.0,7.9,343.0,-9999.0,'1111122,1111122,1111122' 
LUMCON,ioos:station:LUMCON:102:1,2017-05-01T09:00:00Z,29.1870,-90.6093,0.0,6.8,343.0,-9999.0,'1111122,1111122,1111122' 
LUMCON,ioos:station:LUMCON:102:1,2017-05-01T09:15:00Z,29.1870,-90.6093,0.0,9.2,339.0,-9999.0,'1111122,1111122,1111122' 
LUMCON,ioos:station:LUMCON:102:1,2017-05-01T09:30:00Z,29.1870,-90.6093,0.0,8.5,338.0,-9999.0,'1111122,1111122,1111122' 
LUMCON,ioos:station:LUMCON:102:1,2017-05-01T09:45:00Z,29.1870,-90.6093,0.0,7.2,344.0,-9999.0,'1111122,1111122,1111122' 
LUMCON,ioos:station:LUMCON:102:1,2017-05-01T10:00:00Z,29.1870,-90.6093,0.0,8.3,346.0,-9999.0,'1111122,1111122,1111122' 
LUMCON,ioos:station:LUMCON:102:1,2017-05-01T10:15:00Z,29.1870,-90.6093,0.0,8.1,334.0,-9999.0,'1111122,1111122,1111122' 
LUMCON,ioos:station:LUMCON:102:1,2017-05-01T10:30:00Z,29.1870,-90.6093,0.0,6.1,343.0,-9999.0,'1111122,1111122,1111122' 
LUMCON,ioos:station:LUMCON:102:1,2017-05-01T10:45:00Z,29.1870,-90.6093,0.0,7.2,345.0,-9999.0,'1111122,1111122,1111122' 
LUMCON,ioos:station:LUMCON:102:1,2017-05-01T11:00:00Z,29.1870,-90.6093,0.0,6.6,345.0,-9999.0,'1111122,1111122,1111122' 
LUMCON,ioos:station:LUMCON:102:1,2017-05-01T11:15:00Z,29.1870,-90.6093,0.0,5.0,342.0,-9999.0,'1111122,1111122,1111122' 
LUMCON,ioos:station:LUMCON:102:1,2017-05-01T11:30:00Z,29.1870,-90.6093,0.0,6.9,333.0,-9999.0,'1111122,1111122,1111122' 
LUMCON,ioos:station:LUMCON:102:1,2017-05-01T11:45:00Z,29.1870,-90.6093,0.0,6.7,338.0,-9999.0,'1111122,1111122,1111122' 
LUMCON,ioos:station:LUMCON:102:1,2017-05-01T12:00:00Z,29.1870,-90.6093,0.0,6.1,348.0,-9999.0,'1111122,1111122,1111122' 
LUMCON,ioos:station:LUMCON:102:1,2017-05-01T12:15:00Z,29.1870,-90.6093,0.0,5.8,348.0,-9999.0,'1111122,1111122,1111122' 
LUMCON,ioos:station:LUMCON:102:1,2017-05-01T12:30:00Z,29.1870,-90.6093,0.0,6.2,348.0,-9999.0,'1111122,1111122,1111122' 
LUMCON,ioos:station:LUMCON:102:1,2017-05-01T12:45:00Z,29.1870,-90.6093,0.0,5.1,341.0,-9999.0,'1111122,1111122,1111122' 
LUMCON,ioos:station:LUMCON:102:1,2017-05-01T13:00:00Z,29.1870,-90.6093,0.0,5.4,-9999.0,-9999.0,'1111122,1111122,1111122' 
LUMCON,ioos:station:LUMCON:102:1,2017-05-01T13:15:00Z,29.1870,-90.6093,0.0,5.4,5.0,-9999.0,'1111122,1111122,1111122' 
LUMCON,ioos:station:LUMCON:102:1,2017-05-01T13:30:00Z,29.1870,-90.6093,0.0,4.2,14.0,-9999.0,'1111122,1111122,1111122' 
LUMCON,ioos:station:LUMCON:102:1,2017-05-01T13:45:00Z,29.1870,-90.6093,0.0,5.5,14.0,-9999.0,'1111122,1111122,1111122' 
LUMCON,ioos:station:LUMCON:102:1,2017-05-01T14:00:00Z,29.1870,-90.6093,0.0,5.5,9.0,-9999.0,'1111122,1111122,1111122' 
LUMCON,ioos:station:LUMCON:102:1,2017-05-01T14:15:00Z,29.1870,-90.6093,0.0,4.6,13.0,-9999.0,'1111122,1111122,1111122' 
LUMCON,ioos:station:LUMCON:102:1,2017-05-01T14:30:00Z,29.1870,-90.6093,0.0,3.8,33.0,-9999.0,'1111122,1111122,1111122' 
LUMCON,ioos:station:LUMCON:102:1,2017-05-01T14:45:00Z,29.1870,-90.6093,0.0,4.9,35.0,-9999.0,'1111122,1111122,1111122' 
LUMCON,ioos:station:LUMCON:102:1,2017-05-01T15:00:00Z,29.1870,-90.6093,0.0,4.7,22.0,-9999.0,'1111122,1111122,1111122' 
LUMCON,ioos:station:LUMCON:102:1,2017-05-01T15:15:00Z,29.1870,-90.6093,0.0,4.2,33.0,-9999.0,'1111122,1111122,1111122' 
LUMCON,ioos:station:LUMCON:102:1,2017-05-01T15:30:00Z,29.1870,-90.6093,0.0,5.6,30.0,-9999.0,'1111122,1111122,1111122' 
LUMCON,ioos:station:LUMCON:102:1,2017-05-01T15:45:00Z,29.1870,-90.6093,0.0,5.0,48.0,-9999.0,'1111122,1111122,1111122' 
LUMCON,ioos:station:LUMCON:102:1,2017-05-01T16:00:00Z,29.1870,-90.6093,0.0,4.1,48.0,-9999.0,'1111122,1111122,1111122' 
LUMCON,ioos:station:LUMCON:102:1,2017-05-01T16:15:00Z,29.1870,-90.6093,0.0,2.1,88.0,-9999.0,'1111122,1111122,1111122' 
LUMCON,ioos:station:LUMCON:102:1,2017-05-01T16:30:00Z,29.1870,-90.6093,0.0,2.5,66.0,-9999.0,'1111122,1111122,1111122' 
LUMCON,ioos:station:LUMCON:102:1,2017-05-01T16:45:00Z,29.1870,-90.6093,0.0,0.6,76.0,-9999.0,'1111122,1111122,1111122' 
LUMCON,ioos:station:LUMCON:102:1,2017-05-01T17:00:00Z,29.1870,-90.6093,0.0,1.8,50.0,-9999.0,'1111122,1111122,1111122' 
LUMCON,ioos:station:LUMCON:102:1,2017-05-01T17:15:00Z,29.1870,-90.6093,0.0,2.3,39.0,-9999.0,'1111122,1111122,1111122' 
LUMCON,ioos:station:LUMCON:102:1,2017-05-01T17:30:00Z,29.1870,-90.6093,0.0,3.0,57.0,-9999.0,'1111122,1111122,1111122' 
LUMCON,ioos:station:LUMCON:102:1,2017-05-01T17:45:00Z,29.1870,-90.6093,0.0,2.3,63.0,-9999.0,'1111122,1111122,1111122' 
LUMCON,ioos:station:LUMCON:102:1,2017-05-01T18:00:00Z,29.1870,-90.6093,0.0,1.8,84.0,-9999.0,'1111122,1111122,1111122' 
LUMCON,ioos:station:LUMCON:102:1,2017-05-01T18:15:00Z,29.1870,-90.6093,0.0,2.9,99.0,-9999.0,'1111122,1111122,1111122' 
LUMCON,ioos:station:LUMCON:102:1,2017-05-01T18:30:00Z,29.1870,-90.6093,0.0,2.8,130.0,-9999.0,'1111122,1111122,1111122' 
LUMCON,ioos:station:LUMCON:102:1,2017-05-01T18:45:00Z,29.1870,-90.6093,0.0,2.7,99.0,-9999.0,'1111122,1111122,1111122' 
LUMCON,ioos:station:LUMCON:102:1,2017-05-01T19:00:00Z,29.1870,-90.6093,0.0,3.5,150.0,-9999.0,'1111122,1111122,1111122' 
LUMCON,ioos:station:LUMCON:102:1,2017-05-01T19:15:00Z,29.1870,-90.6093,0.0,3.8,177.0,-9999.0,'1111122,1111122,1111122' 
LUMCON,ioos:station:LUMCON:102:1,2017-05-01T19:30:00Z,29.1870,-90.6093,0.0,2.3,158.0,-9999.0,'1111122,1111122,1111122' 
LUMCON,ioos:station:LUMCON:102:1,2017-05-01T19:45:00Z,29.1870,-90.6093,0.0,2.7,173.0,-9999.0,'1111122,1111122,1111122' 
LUMCON,ioos:station:LUMCON:102:1,2017-05-01T20:00:00Z,29.1870,-90.6093,0.0,3.5,181.0,-9999.0,'1111122,1111122,1111122' 
LUMCON,ioos:station:LUMCON:102:1,2017-05-01T20:15:00Z,29.1870,-90.6093,0.0,3.3,182.0,-9999.0,'1111122,1111122,1111122' 
LUMCON,ioos:station:LUMCON:102:1,2017-05-01T20:30:00Z,29.1870,-90.6093,0.0,4.0,183.0,-9999.0,'1111122,1111122,1111122' 
LUMCON,ioos:station:LUMCON:102:1,2017-05-01T20:45:00Z,29.1870,-90.6093,0.0,4.3,156.0,-9999.0,'1111122,1111122,1111122' 
LUMCON,ioos:station:LUMCON:102:1,2017-05-01T21:00:00Z,29.1870,-90.6093,0.0,3.6,173.0,-9999.0,'1111122,1111122,1111122' 
LUMCON,ioos:station:LUMCON:102:1,2017-05-01T21:15:00Z,29.1870,-90.6093,0.0,3.7,188.0,-9999.0,'1111122,1111122,1111122' 
LUMCON,ioos:station:LUMCON:102:1,2017-05-01T21:30:00Z,29.1870,-90.6093,0.0,4.5,190.0,-9999.0,'1111122,1111122,1111122' 
LUMCON,ioos:station:LUMCON:102:1,2017-05-01T21:45:00Z,29.1870,-90.6093,0.0,3.6,208.0,-9999.0,'1111122,1111122,1111122' 
LUMCON,ioos:station:LUMCON:102:1,2017-05-01T22:00:00Z,29.1870,-90.6093,0.0,2.8,201.0,-9999.0,'1111122,1111122,1111122' 
LUMCON,ioos:station:LUMCON:102:1,2017-05-01T22:15:00Z,29.1870,-90.6093,0.0,3.6,217.0,-9999.0,'1111122,1111122,1111122' 
LUMCON,ioos:station:LUMCON:102:1,2017-05-01T22:30:00Z,29.1870,-90.6093,0.0,2.5,206.0,-9999.0,'1111122,1111122,1111122' 
LUMCON,ioos:station:LUMCON:102:1,2017-05-01T22:45:00Z,29.1870,-90.6093,0.0,2.8,237.0,-9999.0,'1111122,1111122,1111122' 
LUMCON,ioos:station:LUMCON:102:1,2017-05-01T23:00:00Z,29.1870,-90.6093,0.0,3.1,245.0,-9999.0,'1111122,1111122,1111122' 
LUMCON,ioos:station:LUMCON:102:1,2017-05-01T23:15:00Z,29.1870,-90.6093,0.0,2.3,239.0,-9999.0,'1111122,1111122,1111122' 
LUMCON,ioos:station:LUMCON:102:1,2017-05-01T23:30:00Z,29.1870,-90.6093,0.0,2.8,233.0,-9999.0,'1111122,1111122,1111122' 
LUMCON,ioos:station:LUMCON:102:1,2017-05-01T23:45:00Z,29.1870,-90.6093,0.0,1.8,229.0,-9999.0,'1111122,1111122,1111122' 
LUMCON,ioos:station:LUMCON:102:1,2017-05-02T00:00:00Z,29.1870,-90.6093,0.0,2.9,251.0,-9999.0,'1111122,1111122,1111122' 
LUMCON,ioos:station:LUMCON:102:1,2017-05-02T00:15:00Z,29.1870,-90.6093,0.0,2.2,244.0,-9999.0,'1111122,1111122,1111122' 
LUMCON,ioos:station:LUMCON:102:1,2017-05-02T00:30:00Z,29.1870,-90.6093,0.0,2.9,244.0,-9999.0,'1111122,1111122,1111122' 
LUMCON,ioos:station:LUMCON:102:1,2017-05-02T00:45:00Z,29.1870,-90.6093,0.0,3.2,270.0,-9999.0,'1111122,1111122,1111122' 
LUMCON,ioos:station:LUMCON:102:1,2017-05-02T01:00:00Z,29.1870,-90.6093,0.0,2.9,289.0,-9999.0,'1111122,1111122,1111122' 
LUMCON,ioos:station:LUMCON:102:1,2017-05-02T01:15:00Z,29.1870,-90.6093,0.0,3.4,278.0,-9999.0,'1111122,1111122,1111122' 
LUMCON,ioos:station:LUMCON:102:1,2017-05-02T01:30:00Z,29.1870,-90.6093,0.0,3.6,284.0,-9999.0,'1111122,1111122,1111122' 
LUMCON,ioos:station:LUMCON:102:1,2017-05-02T01:45:00Z,29.1870,-90.6093,0.0,3.2,278.0,-9999.0,'1111122,1111122,1111122' 
LUMCON,ioos:station:LUMCON:102:1,2017-05-02T02:00:00Z,29.1870,-90.6093,0.0,2.8,263.0,-9999.0,'1111122,1111122,1111122' 
LUMCON,ioos:station:LUMCON:102:1,2017-05-02T02:15:00Z,29.1870,-90.6093,0.0,2.6,262.0,-9999.0,'1111122,1111122,1111122' 
LUMCON,ioos:station:LUMCON:102:1,2017-05-02T02:30:00Z,29.1870,-90.6093,0.0,3.3,283.0,-9999.0,'1111122,1111122,1111122' 
LUMCON,ioos:station:LUMCON:102:1,2017-05-02T02:45:00Z,29.1870,-90.6093,0.0,2.5,288.0,-9999.0,'1111122,1111122,1111122' 
LUMCON,ioos:station:LUMCON:102:1,2017-05-02T03:00:00Z,29.1870,-90.6093,0.0,2.8,296.0,-9999.0,'1111122,1111122,1111122' 
LUMCON,ioos:station:LUMCON:102:1,2017-05-02T03:15:00Z,29.1870,-90.6093,0.0,2.6,292.0,-9999.0,'1111122,1111122,1111122' 
LUMCON,ioos:station:LUMCON:102:1,2017-05-02T03:30:00Z,29.1870,-90.6093,0.0,2.2,284.0,-9999.0,'1111122,1111122,1111122' 
LUMCON,ioos:station:LUMCON:102:1,2017-05-02T03:45:00Z,29.1870,-90.6093,0.0,2.0,281.0,-9999.0,'1111122,1111122,1111122' 
LUMCON,ioos:station:LUMCON:102:1,2017-05-02T04:00:00Z,29.1870,-90.6093,0.0,2.8,282.0,-9999.0,'1111122,1111122,1111122' 
LUMCON,ioos:station:LUMCON:102:1,2017-05-02T04:15:00Z,29.1870,-90.6093,0.0,2.4,254.0,-9999.0,'1111122,1111122,1111122' 
LUMCON,ioos:station:LUMCON:102:1,2017-05-02T04:30:00Z,29.1870,-90.6093,0.0,2.1,288.0,-9999.0,'1111122,1111122,1111122' 
LUMCON,ioos:station:LUMCON:102:1,2017-05-02T04:45:00Z,29.1870,-90.6093,0.0,2.3,272.0,-9999.0,'1111122,1111122,1111122' 
LUMCON,ioos:station:LUMCON:102:1,2017-05-02T05:00:00Z,29.1870,-90.6093,0.0,2.6,272.0,-9999.0,'1111122,1111122,1111122' 
LUMCON,ioos:station:LUMCON:102:1,2017-05-02T05:15:00Z,29.1870,-90.6093,0.0,2.2,260.0,-9999.0,'1111122,1111122,1111122' 
LUMCON,ioos:station:LUMCON:102:1,2017-05-02T05:30:00Z,29.1870,-90.6093,0.0,1.9,269.0,-9999.0,'1111122,1111122,1111122' 
LUMCON,ioos:station:LUMCON:102:1,2017-05-02T05:45:00Z,29.1870,-90.6093,0.0,2.6,262.0,-9999.0,'1111122,1111122,1111122' 
LUMCON,ioos:station:LUMCON:102:1,2017-05-02T06:00:00Z,29.1870,-90.6093,0.0,2.8,295.0,-9999.0,'1111122,1111122,1111122' 
LUMCON,ioos:station:LUMCON:102:1,2017-05-02T06:15:00Z,29.1870,-90.6093,0.0,2.1,275.0,-9999.0,'1111122,1111122,1111122' 
LUMCON,ioos:station:LUMCON:102:1,2017-05-02T06:30:00Z,29.1870,-90.6093,0.0,2.1,261.0,-9999.0,'1111122,1111122,1111122' 
LUMCON,ioos:station:LUMCON:102:1,2017-05-02T06:45:00Z,29.1870,-90.6093,0.0,1.7,246.0,-9999.0,'1111122,1111122,1111122' 
LUMCON,ioos:station:LUMCON:102:1,2017-05-02T07:00:00Z,29.1870,-90.6093,0.0,1.7,255.0,-9999.0,'1111122,1111122,1111122' 
LUMCON,ioos:station:LUMCON:102:1,2017-05-02T07:15:00Z,29.1870,-90.6093,0.0,2.0,263.0,-9999.0,'1111122,1111122,1111122' 
LUMCON,ioos:station:LUMCON:102:1,2017-05-02T07:30:00Z,29.1870,-90.6093,0.0,1.4,223.0,-9999.0,'1111122,1111122,1111122' 
LUMCON,ioos:station:LUMCON:102:1,2017-05-02T07:45:00Z,29.1870,-90.6093,0.0,1.3,248.0,-9999.0,'1111122,1111122,1111122' 
LUMCON,ioos:station:LUMCON:102:1,2017-05-02T08:00:00Z,29.1870,-90.6093,0.0,1.7,220.0,-9999.0,'1111122,1111122,1111122' 
LUMCON,ioos:station:LUMCON:102:1,2017-05-02T08:15:00Z,29.1870,-90.6093,0.0,2.1,221.0,-9999.0,'1111122,1111122,1111122' 
LUMCON,ioos:station:LUMCON:102:1,2017-05-02T08:30:00Z,29.1870,-90.6093,0.0,2.6,209.0,-9999.0,'1111122,1111122,1111122' 
LUMCON,ioos:station:LUMCON:102:1,2017-05-02T08:45:00Z,29.1870,-90.6093,0.0,2.7,221.0,-9999.0,'1111122,1111122,1111122' 
LUMCON,ioos:station:LUMCON:102:1,2017-05-02T09:00:00Z,29.1870,-90.6093,0.0,1.7,211.0,-9999.0,'1111122,1111122,1111122' 
LUMCON,ioos:station:LUMCON:102:1,2017-05-02T09:15:00Z,29.1870,-90.6093,0.0,1.5,205.0,-9999.0,'1111122,1111122,1111122' 
LUMCON,ioos:station:LUMCON:102:1,2017-05-02T09:30:00Z,29.1870,-90.6093,0.0,1.8,214.0,-9999.0,'1111122,1111122,1111122' 
LUMCON,ioos:station:LUMCON:102:1,2017-05-02T09:45:00Z,29.1870,-90.6093,0.0,0.9,225.0,-9999.0,'1111122,1111122,1111122' 
LUMCON,ioos:station:LUMCON:102:1,2017-05-02T10:00:00Z,29.1870,-90.6093,0.0,0.5,189.0,-9999.0,'1111122,1111122,1111122' 
LUMCON,ioos:station:LUMCON:102:1,2017-05-02T10:15:00Z,29.1870,-90.6093,0.0,0.5,98.0,-9999.0,'1111122,1111122,1111122' 
LUMCON,ioos:station:LUMCON:102:1,2017-05-02T10:30:00Z,29.1870,-90.6093,0.0,0.4,43.0,-9999.0,'1111122,1111122,1111122' 
LUMCON,ioos:station:LUMCON:102:1,2017-05-02T10:45:00Z,29.1870,-90.6093,0.0,1.0,65.0,-9999.0,'1111122,1111122,1111122' 
LUMCON,ioos:station:LUMCON:102:1,2017-05-02T11:00:00Z,29.1870,-90.6093,0.0,1.3,79.0,-9999.0,'1111122,1111122,1111122' 
LUMCON,ioos:station:LUMCON:102:1,2017-05-02T11:15:00Z,29.1870,-90.6093,0.0,1.4,96.0,-9999.0,'1111122,1111122,1111122' 
LUMCON,ioos:station:LUMCON:102:1,2017-05-02T11:30:00Z,29.1870,-90.6093,0.0,1.4,100.0,-9999.0,'1111122,1111122,1111122' 
LUMCON,ioos:station:LUMCON:102:1,2017-05-02T11:45:00Z,29.1870,-90.6093,0.0,1.2,101.0,-9999.0,'1111122,1111122,1111122' 
LUMCON,ioos:station:LUMCON:102:1,2017-05-02T12:00:00Z,29.1870,-90.6093,0.0,1.7,126.0,-9999.0,'1111122,1111122,1111122' 
LUMCON,ioos:station:LUMCON:102:1,2017-05-02T12:15:00Z,29.1870,-90.6093,0.0,2.6,127.0,-9999.0,'1111122,1111122,1111122' 
LUMCON,ioos:station:LUMCON:102:1,2017-05-02T12:30:00Z,29.1870,-90.6093,0.0,2.4,119.0,-9999.0,'1111122,1111122,1111122' 
LUMCON,ioos:station:LUMCON:102:1,2017-05-02T12:45:00Z,29.1870,-90.6093,0.0,2.5,122.0,-9999.0,'1111122,1111122,1111122' 
LUMCON,ioos:station:LUMCON:102:1,2017-05-02T13:00:00Z,29.1870,-90.6093,0.0,2.6,113.0,-9999.0,'1111122,1111122,1111122' 
LUMCON,ioos:station:LUMCON:102:1,2017-05-02T13:15:00Z,29.1870,-90.6093,0.0,2.5,107.0,-9999.0,'1111122,1111122,1111122' 
LUMCON,ioos:station:LUMCON:102:1,2017-05-02T13:30:00Z,29.1870,-90.6093,0.0,3.2,98.0,-9999.0,'1111122,1111122,1111122' 
LUMCON,ioos:station:LUMCON:102:1,2017-05-02T13:45:00Z,29.1870,-90.6093,0.0,3.6,103.0,-9999.0,'1111122,1111122,1111122' 
LUMCON,ioos:station:LUMCON:102:1,2017-05-02T14:00:00Z,29.1870,-90.6093,0.0,4.1,104.0,-9999.0,'1111122,1111122,1111122' 
LUMCON,ioos:station:LUMCON:102:1,2017-05-02T14:15:00Z,29.1870,-90.6093,0.0,4.7,110.0,-9999.0,'1111122,1111122,1111122' 
LUMCON,ioos:station:LUMCON:102:1,2017-05-02T14:30:00Z,29.1870,-90.6093,0.0,4.3,105.0,-9999.0,'1111122,1111122,1111122' 
LUMCON,ioos:station:LUMCON:102:1,2017-05-02T14:45:00Z,29.1870,-90.6093,0.0,3.9,107.0,-9999.0,'1111122,1111122,1111122' 
LUMCON,ioos:station:LUMCON:102:1,2017-05-02T15:00:00Z,29.1870,-90.6093,0.0,3.8,100.0,-9999.0,'1111122,1111122,1111122' 
LUMCON,ioos:station:LUMCON:102:1,2017-05-02T15:15:00Z,29.1870,-90.6093,0.0,4.7,102.0,-9999.0,'1111122,1111122,1111122' 
LUMCON,ioos:station:LUMCON:102:1,2017-05-02T15:30:00Z,29.1870,-90.6093,0.0,4.0,105.0,-9999.0,'1111122,1111122,1111122' 
LUMCON,ioos:station:LUMCON:102:1,2017-05-02T15:45:00Z,29.1870,-90.6093,0.0,4.3,112.0,-9999.0,'1111122,1111122,1111122' 
LUMCON,ioos:station:LUMCON:102:1,2017-05-02T16:00:00Z,29.1870,-90.6093,0.0,3.7,112.0,-9999.0,'1111122,1111122,1111122' 
LUMCON,ioos:station:LUMCON:102:1,2017-05-02T16:15:00Z,29.1870,-90.6093,0.0,4.6,109.0,-9999.0,'1111122,1111122,1111122' 
LUMCON,ioos:station:LUMCON:102:1,2017-05-02T16:30:00Z,29.1870,-90.6093,0.0,4.9,107.0,-9999.0,'1111122,1111122,1111122' 
LUMCON,ioos:station:LUMCON:102:1,2017-05-02T16:45:00Z,29.1870,-90.6093,0.0,6.6,124.0,-9999.0,'1111122,1111122,1111122' 
LUMCON,ioos:station:LUMCON:102:1,2017-05-02T17:00:00Z,29.1870,-90.6093,0.0,6.4,125.0,-9999.0,'1111122,1111122,1111122' 
LUMCON,ioos:station:LUMCON:102:1,2017-05-02T17:15:00Z,29.1870,-90.6093,0.0,6.3,123.0,-9999.0,'1111122,1111122,1111122' 
LUMCON,ioos:station:LUMCON:102:1,2017-05-02T17:30:00Z,29.1870,-90.6093,0.0,5.9,122.0,-9999.0,'1111122,1111122,1111122' 
LUMCON,ioos:station:LUMCON:102:1,2017-05-02T17:45:00Z,29.1870,-90.6093,0.0,5.9,122.0,-9999.0,'1111122,1111122,1111122' 
LUMCON,ioos:station:LUMCON:102:1,2017-05-02T18:00:00Z,29.1870,-90.6093,0.0,5.9,127.0,-9999.0,'1111122,1111122,1111122' 
LUMCON,ioos:station:LUMCON:102:1,2017-05-02T18:15:00Z,29.1870,-90.6093,0.0,6.5,122.0,-9999.0,'1111122,1111122,1111122' 
LUMCON,ioos:station:LUMCON:102:1,2017-05-02T18:30:00Z,29.1870,-90.6093,0.0,5.9,137.0,-9999.0,'1111122,1111122,1111122' 
LUMCON,ioos:station:LUMCON:102:1,2017-05-02T18:45:00Z,29.1870,-90.6093,0.0,6.5,142.0,-9999.0,'1111122,1111122,1111122' 
LUMCON,ioos:station:LUMCON:102:1,2017-05-02T19:00:00Z,29.1870,-90.6093,0.0,5.9,126.0,-9999.0,'1111122,1111122,1111122' 
LUMCON,ioos:station:LUMCON:102:1,2017-05-02T19:15:00Z,29.1870,-90.6093,0.0,6.4,136.0,-9999.0,'1111122,1111122,1111122' 
LUMCON,ioos:station:LUMCON:102:1,2017-05-02T19:30:00Z,29.1870,-90.6093,0.0,5.8,120.0,-9999.0,'1111122,1111122,1111122' 
LUMCON,ioos:station:LUMCON:102:1,2017-05-02T19:45:00Z,29.1870,-90.6093,0.0,5.5,136.0,-9999.0,'1111122,1111122,1111122' 
LUMCON,ioos:station:LUMCON:102:1,2017-05-02T20:00:00Z,29.1870,-90.6093,0.0,6.1,136.0,-9999.0,'1111122,1111122,1111122' 
LUMCON,ioos:station:LUMCON:102:1,2017-05-02T20:15:00Z,29.1870,-90.6093,0.0,6.6,132.0,-9999.0,'1111122,1111122,1111122' 
LUMCON,ioos:station:LUMCON:102:1,2017-05-02T20:30:00Z,29.1870,-90.6093,0.0,6.3,138.0,-9999.0,'1111122,1111122,1111122' 
LUMCON,ioos:station:LUMCON:102:1,2017-05-02T20:45:00Z,29.1870,-90.6093,0.0,6.4,135.0,-9999.0,'1111122,1111122,1111122' 
LUMCON,ioos:station:LUMCON:102:1,2017-05-02T21:00:00Z,29.1870,-90.6093,0.0,6.6,134.0,-9999.0,'1111122,1111122,1111122' 
LUMCON,ioos:station:LUMCON:102:1,2017-05-02T21:15:00Z,29.1870,-90.6093,0.0,6.9,138.0,-9999.0,'1111122,1111122,1111122' 
LUMCON,ioos:station:LUMCON:102:1,2017-05-02T21:30:00Z,29.1870,-90.6093,0.0,6.8,138.0,-9999.0,'1111122,1111122,1111122' 
LUMCON,ioos:station:LUMCON:102:1,2017-05-02T21:45:00Z,29.1870,-90.6093,0.0,6.7,136.0,-9999.0,'1111122,1111122,1111122' 
LUMCON,ioos:station:LUMCON:102:1,2017-05-02T22:00:00Z,29.1870,-90.6093,0.0,8.0,133.0,-9999.0,'1111122,1111122,1111122' 
LUMCON,ioos:station:LUMCON:102:1,2017-05-02T22:15:00Z,29.1870,-90.6093,0.0,8.5,138.0,-9999.0,'1111122,1111122,1111122' 
LUMCON,ioos:station:LUMCON:102:1,2017-05-02T22:30:00Z,29.1870,-90.6093,0.0,7.4,135.0,-9999.0,'1111122,1111122,1111122' 
LUMCON,ioos:station:LUMCON:102:1,2017-05-02T22:45:00Z,29.1870,-90.6093,0.0,8.0,141.0,-9999.0,'1111122,1111122,1111122' 
LUMCON,ioos:station:LUMCON:102:1,2017-05-02T23:00:00Z,29.1870,-90.6093,0.0,8.7,136.0,-9999.0,'1111122,1111122,1111122' 
LUMCON,ioos:station:LUMCON:102:1,2017-05-02T23:15:00Z,29.1870,-90.6093,0.0,8.5,140.0,-9999.0,'1111122,1111122,1111122' 
LUMCON,ioos:station:LUMCON:102:1,2017-05-02T23:30:00Z,29.1870,-90.6093,0.0,7.9,143.0,-9999.0,'1111122,1111122,1111122' 
LUMCON,ioos:station:LUMCON:102:1,2017-05-02T23:45:00Z,29.1870,-90.6093,0.0,8.3,145.0,-9999.0,'1111122,1111122,1111122' 
LUMCON,ioos:station:LUMCON:102:1,2017-05-03T00:00:00Z,29.1870,-90.6093,0.0,8.1,132.0,-9999.0,'1111122,1111122,1111122' 
LUMCON,ioos:station:LUMCON:102:1,2017-05-03T00:15:00Z,29.1870,-90.6093,0.0,7.8,149.0,-9999.0,'1111122,1111122,1111122' 
LUMCON,ioos:station:LUMCON:102:1,2017-05-03T00:30:00Z,29.1870,-90.6093,0.0,7.8,139.0,-9999.0,'1111122,1111122,1111122' 
LUMCON,ioos:station:LUMCON:102:1,2017-05-03T00:45:00Z,29.1870,-90.6093,0.0,7.7,141.0,-9999.0,'1111122,1111122,1111122' 
LUMCON,ioos:station:LUMCON:102:1,2017-05-03T01:00:00Z,29.1870,-90.6093,0.0,7.0,138.0,-9999.0,'1111122,1111122,1111122' 
LUMCON,ioos:station:LUMCON:102:1,2017-05-03T01:15:00Z,29.1870,-90.6093,0.0,8.6,143.0,-9999.0,'1111122,1111122,1111122' 
LUMCON,ioos:station:LUMCON:102:1,2017-05-03T01:30:00Z,29.1870,-90.6093,0.0,8.5,136.0,-9999.0,'1111122,1111122,1111122' 